www.pogodaiklimat.ru

Погода и климат >> Архив погоды >> Сенегал >> Cap-Skirring


ПОГОДА в Cap-Skirring

  • Прогноз погоды в Cap-Skirring
  • Монитор погоды в Cap-Skirring
  • Климат города

АРХИВ ПОГОДЫ в Cap-Skirring

Время (UTC), дата Ветер
(напр.,м/с)
 
Видим.   Явления Облачность Т
(С)
Тd
(С)
f
(%)
Тe
(С)
Тes
(С)
Комфортность P
(гПа)
Po
(гПа)
Тmin
(С)
Tmax
(С)
R
(мм)
R24
(мм)
S
(см)
00 12.12 С 2 10 км ясно +20.0 +18.7 92 +24 +24 комфорт 1014.1 1012.6
03 12.12 С 3 10 км ясно +20.3 +18.2 88 +24 +24 комфорт 1012.8 1011.4
06 12.12 С 3 10 км ясно +19.5 +17.1 86 +22 +22 комфорт 1012.6 1011.1 +19.0
09 12.12 С 1 10 км 3/0
[Ac trans]
+21.6 +15.8 70 +25 +28 комфорт 1012.6 1012.1
15 12.12 ЮЗ 2 10 км 3/0
[Ac trans Ci fib]
+31.1 +17.8 45 +35 +44 очень
душно
1011.3 1009.9
18 12.12 СЗ 3 10 км 4/0
[Ci sp]
+26.7 +19.5 65 +32 +33 очень
душно
1011.6 1010.2 +33.5
21 12.12 СЗ 1 10 км ясно +21.1 +18.6 86 +25 +25 комфорт 1013.3 1011.9
00 13.12 С 1 10 км ясно +18.2 +16.7 91 +20 +20 1013.7 1012.3
06 13.12 С 1 10 км ясно +17.8 +17.5 98 +19 +19 1012.9 1011.5 +17.2
09 13.12 С 3 10 км 6/0
[Ac trans Ci sp]
+20.8 +16.2 75 +25 +26 комфорт 1014.9 1013.5
12 13.12 С 5 10 км 6/0
[Ci sp]
+28.8 +9.7 30 +29 +35 жарко 1014.2 1012.7
15 13.12 ЮЗ 2 10 км 4/0
[Ci sp]
+31.0 +16.9 43 +35 +45 очень
душно
1011.9 1010.5
18 13.12 ЮЗ 1 10 км 1/0
[Ci sp]
+28.7 +19.9 59 +35 +36 очень
душно
1012.1 1010.6 +32.5
21 13.12 Ю 1 10 км ясно +24.0 +21.8 88 +31 +31 очень
душно
1013.5 1012.1
00 14.12 СЗ 1 10 км 4/0
[Ci sp]
+22.2 +21.1 93 +29 +29 очень
душно
1014.1 1012.7
03 14.12 С 1 10 км 9/0
[Ac As]
+21.9 +20.8 93 +28 +28 душно 1013.6 1012.2
06 14.12 С 2 10 км 9/0
[Ac As]
+22.9 +21.9 94 +31 +31 очень
душно
1013.2 1011.8 +22.0
09 14.12 С 3 10 км 9/0
[Ac As]
+24.7 +22.3 87 +32 +33 очень
душно
1014.8 1013.4
12 14.12 С 4 10 км 8/0
[Ac As]
+30.3 +16.4 43 +34 +37 очень
душно
1015.1 1013.7
15 14.12 СВ 3 10 км 8/0
[Ac As]
+32.5 +14.8 34 +34 +38 очень
жарко
1013.1 1011.7
18 14.12 ЮЗ 1 10 км 9/0
[Ac As]
+29.1 +22.2 66 +38 +38 очень
душно
1013.7 1012.0 +33.4
21 14.12 В 2 10 км 9/0
[Ac As]
+25.0 +20.5 76 +31 +31 очень
душно
1015.6 1014.2
00 15.12 ЮЗ 1 10 км 8/0
[Ac As]
+24.5 +21.0 81 +31 +31 очень
душно
1016.2 1014.8
06 15.12 С 3 10 км 9/0
[Ac As]
+23.6 +17.0 66 +27 +27 жарко 1015.6 1014.2 +23.2
09 15.12 С 4 10 км 5/0
[Ac trans Ci sp]
+25.1 +13.0 47 +27 +28 жарко 1017.3 1015.8
12 15.12 СВ 6 10 км 8/0
[Ac As]
+30.5 +9.3 27 +30 +32 жарко 1017.0 1015.6
15 15.12 С 5 10 км 8/0
[Ac As]
+33.5 +10.4 24 +33 +35 жарко 1013.7 1012.3
18 15.12 С 3 10 км 8/0
[Ac As]
+32.6 +13.2 31 +34 +34 очень
жарко
1014.5 1013.1 +34.0
21 15.12 СВ 3 10 км 8/0
[Ac As]
+26.5 +15.0 49 +29 +29 жарко 1016.0 1014.6
00 16.12 С 4 10 км ясно +24.8 +9.8 39 +26 +26 жарко 1016.0 1014.6
03 16.12 СВ 4 10 км ясно +24.7 +6.2 30 +25 +25 комфорт 1015.1 1013.7
06 16.12 СВ 6 10 км ясно +23.5 +4.4 29 +23 +23 комфорт 1015.1 1013.7 +22.7
09 16.12 СВ 6 10 км ясно +23.5 +7.3 35 +24 +25 комфорт 1016.0 1014.6
12 16.12 СВ 6 10 км 3/0
[Ac trans]
+30.4 +6.8 23 +29 +33 жарко 1016.3 1014.8
15 16.12 С 4 10 км 1/0
[Ac trans]
+33.5 +7.5 20 +32 +39 жарко 1013.6 1012.1
18 16.12 С 3 10 км ясно +28.0 +17.9 54 +32 +33 душно 1013.2 1011.7 +34.1
21 16.12 С 2 10 км ясно +23.9 +19.9 78 +29 +29 душно 1015.0 1003.5
00 17.12 С 2 10 км ясно +22.3 +20.9 92 +29 +29 очень
душно
1015.4 1014.0
03 17.12 С 2 10 км ясно +21.9 +20.1 90 +28 +28 душно 1014.6 1013.2
06 17.12 С 3 10 км ясно +19.9 +16.8 82 +23 +23 комфорт 1014.5 1013.0 +19.6
09 17.12 С 3 10 км ясно +22.2 +16.9 72 +27 +29 душно 1015.6 1014.1
12 17.12 СВ 5 10 км ясно +30.0 +7.0 24 +29 +36 жарко 1014.9 1013.5
15 17.12 СВ 3 10 км ясно +33.8 +7.2 19 +32 +41 жарко 1012.0 1010.6
18 17.12 С 2 10 км 8/0
[Ci sp]
+27.4 +18.8 59 +32 +33 очень
душно
1012.1 1010.6 +34.0
21 17.12 С 2 10 км 5/0
[Ci sp]
+24.0 +18.5 71 +28 +28 душно 1014.1 1012.6
00 18.12 С 3 10 км ясно +22.6 +20.1 86 +29 +29 очень
душно
1015.0 1013.6
03 18.12 С 3 10 км ясно +22.0 +19.4 85 +27 +27 душно 1013.5 1012.1
06 18.12 С 3 10 км ясно +20.3 +16.5 79 +24 +24 комфорт 1012.8 1011.3
09 18.12 С 3 10 км ясно +22.0 +17.9 78 +27 +29 душно 1015.7 1014.0
12 18.12 СВ 4 10 км 3/0
[Ci sp]
+30.0 +10.3 29 +30 +38 жарко 1015.2 1013.8
15 18.12 С 4 10 км 4/0
[Ci sp]
+33.5 +7.5 20 +32 +38 жарко 1013.1 1011.7
18 18.12 СЗ 3 10 км 8/0
[Ci sp]
+27.8 +20.6 65 +35 +35 очень
душно
1012.2 1010.8 +33.8

 

Местоположение метеостанции Cap-Skirring (Сенегал): широта 12.40 долгота -16.75 высота над уровнем моря 13 м.

В архиве по умолчанию представлена погода в Cap-Skirring за последнюю неделю. Архивные данные за месяц целиком и за предыдущие месяцы, начиная с января 2011 года, Вы можете получить, выбрав интересующий диапазон дат из раскрывающегося списка и нажав кнопку "Ввод!".


*Определитесь, кто Вы:
робот инопланетянин человек

Внимание! Время в таблицах - всемирное. Для получения местного времени необходимо прибавить поправку, которая в Cap-Skirring равна 0 ч.

Смотрите также архив погоды в соседних городах и на ближайших метеорологических станциях:

Погода в Ziguinchor (Сенегал) (56 км)
Погода в Banjil Int Airport (Гамбия) (105 км)
Погода в Sibanor (Гамбия) (109 км)
Погода в Banjul Half-Die (Гамбия) (121 км)
Погода в Bissau (Гвинея-Биссау) (132 км)
Погода в Kerewan (Гамбия) (141 км)
Погода в Sapu (Гамбия) (158 км)
Погода в Bolama (Гвинея-Биссау) (166 км)
Погода в Jenoi (Гамбия) (175 км)
Погода в Kolda (Сенегал) (201 км)

Пояснения к столбцам:

Ветер - указаны скорость ветра в м/с - средняя за 10 мин, порывы в срок и между сроками (в фигурных скобках) и направление, откуда дует ветер: С - северный, СВ - северо-восточный, В - восточный, ЮВ - юго-восточный, Ю - южный, ЮЗ - юго-западный, З - западный, СЗ - северо-западный.
Видимость - горизонтальная дальность видимости в метрах или километрах. При видимости от 1 до 10 км при отсутствии осадков обычно наблюдается дымка, при ухудшении видимости до 1 км и менее - туман. В сухую погоду видимость может ухудшаться дымом, пылью или мглою.
Явления - указаны атмосферные явления, наблюдавшиеся в срок или в последний час перед сроком; фигурными скобками обозначены явления, наблюдавшиеся между сроками (за 1-3 часа до срока); квадратными скобками обозначены град или гололедные отложения с указанием их диаметра в мм.
Облачность - указаны через наклонную черту общая и нижняя облачность в баллах и высота нижней границы облаков в метрах; квадратными скобками обозначены формы облаков: Ci - перистые, Cs - перисто-слоистые, Cc - перисто-кучевые, Ac - высококучевые, As - высокослоистые, Sc - слоисто-кучевые, Ns - слоисто-дождевые, Cu - кучевые, Cb - кучево-дождевые. Подробнее классификацию облаков см. в Атласе облаков (PDF).
T - Температура воздуха - температура, измеренная на высоте 2 м над землей.
Td - Температура точки росы - температура, при понижении до которой содержащийся в воздухе водяной пар достигнет насыщения.
f - Относительная влажность воздуха - влажноcть воздуха, измеренная на высоте 2 м над землей.
Te - Эффективная температура - температура, которую ощущает одетый по сезону человек в тени. Характеристика душности погоды. При расчете учитывается влияние влажности воздуха и скорости ветра на теплоощущения человека.
Tes - Эффективная температура на солнце - температура, которую ощущает человек, с поправкой на солнечный нагрев. Характеристика знойности погоды. Зависит от высоты солнца над горизонтом, облачности и скорости ветра. Ночью, в пасмурную погоду, а также при ветре 12 м/с и более поправка равна нулю.
P - Атмосферное давление - приведенное к уровню моря атмосферное давление.
Po - Атмосферное давление - измеренное на уровне метеостанции атмосферное давление.
Tmin - Минимальная температура - минимум температуры воздуха на высоте 2 м над землей.
Tmax - Максимальная температура - максимум температуры воздуха на высоте 2 м над землей.
R - Количество осадков - Количество выпавших осадков за период времени, мм. При наведении курсора мыши на число - период времени, за который выпало указанное количество осадков.
R24 - Количество осадков - Количество выпавших осадков за 24 часа, мм.
S - Снежный покров - Высота снежного покрова, см. При наведении курсора мыши на число - состояние снежного покрова и степень покрытия местности в баллах.